DW8722 Weather Reports


Display with metric or nautical units.
time (UTC)temp
F
wind
direction
speed
MPH
gust
MPH
rain 1hr
in
rain 24hr
in
rain mn
in
humidity
%
barometer
mb
20260903221125 90 155 7.0 12.0 0.00 0.02 0.02 61 1010.5
20260903220137 89 125 6.0 12.0 0.00 0.02 0.02 63 1010.6
20260903215128 89 126 6.0 11.0 0.00 0.02 0.02 62 1010.7
20260903214150 89 132 6.0 11.0 0.00 0.02 0.02 63 1010.8
20260903213148 89 164 7.0 13.0 0.00 0.02 0.02 63 1010.9
20260903212139 89 178 8.0 17.0 0.00 0.02 0.02 63 1011.1
20260903210015 89 159 8.0 15.0 0.00 0.02 0.02 63 1011.2
20260903204957 89 148 8.0 17.0 0.00 0.02 0.02 65 1011.3
20260903203930 89 137 8.0 17.0 0.00 0.02 0.02 65 1011.6
20260903202920 88 169 6.0 13.0 0.00 0.02 0.02 64 1011.6
20260903201922 88 187 7.0 14.0 0.00 0.02 0.02 66 1011.7
20260903200902 88 128 7.0 16.0 0.00 0.02 0.02 67 1011.8
20260903195837 87 186 8.0 16.0 0.00 0.02 0.02 67 1011.9
20260903194825 87 150 8.0 14.0 0.00 0.02 0.02 68 1012.0
20260903192645 85 157 10.0 16.0 0.00 0.02 0.02 72 1012.1
20260903191654 84 162 9.0 21.0 0.00 0.02 0.02 75 1012.5
20260903190642 83 153 11.0 21.0 0.00 0.02 0.02 75 1012.6
20260903185614 83 155 10.0 21.0 0.00 0.02 0.02 75 1012.7
20260903184634 83 186 8.0 18.0 0.00 0.02 0.02 77 1012.8
20260903183636 82 173 9.0 18.0 0.00 0.02 0.02 78 1012.9
20260903182605 81 171 9.0 17.0 0.00 0.02 0.02 80 1013.1
20260903181602 81 153 8.0 19.0 0.00 0.02 0.02 80 1013.3
20260903180623 81 158 9.0 19.0 0.00 0.02 0.02 80 1013.2
20260903173348 81 149 8.0 19.0 0.00 0.02 0.02 81 1013.4
20260903172358 81 157 10.0 19.0 0.00 0.02 0.02 81 1013.6
20260903170238 81 168 10.0 17.0 0.00 0.02 0.02 83 1013.6
20260903165239 81 187 8.0 19.0 0.00 0.02 0.02 83 1013.5
20260903163026 79 174 7.0 16.0 0.00 0.02 0.02 86 1013.4
20260903162031 79 121 8.0 19.0 0.00 0.02 0.02 86 1013.4
20260903161047 79 177 8.0 19.0 0.00 0.02 0.02 86 1013.5
20260903160013 80 138 7.0 14.0 0.00 0.02 0.02 86 1013.4
20260903154952 80 142 6.0 13.0 0.00 0.02 0.02 87 1013.4
20260903153948 79 159 8.0 16.0 0.00 0.02 0.02 87 1013.3
20260903153002 79 175 8.0 16.0 0.00 0.02 0.02 87 1013.2
20260903151936 79 114 8.0 17.0 0.00 0.02 0.02 87 1013.2
20260903150954 79 169 8.0 17.0 0.00 0.02 0.02 87 1013.1
20260903145945 79 140 7.0 15.0 0.00 0.02 0.02 88 1013.1
20260903145010 79 150 6.0 15.0 0.00 0.02 0.02 89 1013.0
20260903142856 79 147 6.0 15.0 0.00 0.02 0.02 90 1013.1
20260903141837 78 147 7.0 15.0 0.00 0.02 0.02 90 1013.1
20260903140858 78 157 6.0 13.0 0.00 0.02 0.02 90 1013.3
20260903133620 77 155 3.0 7.0 0.00 0.02 0.02 90 1013.2
20260903132603 76 141 3.0 7.0 0.00 0.02 0.02 90 1013.2
20260903131603 76 119 3.0 8.0 0.00 0.02 0.02 90 1013.2
20260903130601 76 143 3.0 8.0 0.00 0.02 0.02 90 1013.2
20260903125554 76 123 3.0 8.0 0.00 0.02 0.02 90 1013.2
20260903124601 76 145 3.0 4.0 0.00 0.02 0.02 90 1012.9
20260903122743 76 153 4.0 10.0 0.00 0.02 0.02 90 1012.9
20260903121720 76 149 3.0 10.0 0.00 0.02 0.02 90 1012.9
20260903120710 76 148 4.0 8.0 0.00 0.02 0.02 90 1012.6
20260903115727 76 126 4.0 9.0 0.00 0.02 0.02 91 1012.6
20260903113604 76 127 0.0 7.0 0.00 0.02 0.02 91 1012.6
20260903104838 76 172 3.0 8.0 0.00 0.01 0.01 90 1012.3
20260903102730 77 153 4.0 10.0 0.00 0.01 0.01 89 1012.2
20260903101718 77 123 6.0 11.0 0.00 0.00 0.00 88 1012.1
20260903100736 77 107 6.0 12.0 0.00 0.00 0.00 88 1012.1
20260903095733 77 110 6.0 12.0 0.00 0.00 0.00 88 1012.1
20260903094701 77 118 4.0 9.0 0.00 0.00 0.00 87 1012.0
20260903093706 77 119 4.0 12.0 0.00 0.00 0.00 87 1012.0
20260903092700 77 110 7.0 12.0 0.00 0.00 0.00 87 1012.2
20260903091705 77 123 4.0 13.0 0.00 0.00 0.00 86 1012.1
20260903090718 77 136 7.0 14.0 0.00 0.00 0.00 86 1012.3
20260903085644 78 118 7.0 15.0 0.00 0.00 0.00 85 1012.2
20260903084615 78 138 7.0 15.0 0.00 0.00 0.00 83 1012.1
20260903083622 79 94 6.0 14.0 0.00 0.00 0.00 83 1012.1
20260903080027 79 132 6.0 13.0 0.00 0.00 0.00 82 1012.1
20260903075035 79 136 7.0 13.0 0.00 0.00 0.00 82 1012.1
20260903074002 79 102 7.0 13.0 0.00 0.00 0.00 81 1012.0
20260903072936 79 123 8.0 16.0 0.00 0.00 0.00 80 1012.1
20260903071945 80 124 9.0 18.0 0.00 0.00 0.00 80 1012.1
20260903065740 80 99 6.0 15.0 0.00 0.00 0.00 78 1012.3
20260903063606 79 92 3.0 7.0 0.00 0.00 0.00 77 1012.3
20260903061455 79 101 3.0 9.0 0.00 0.00 0.00 77 1012.4
20260903060513 79 90 1.0 8.0 0.00 0.00 0.00 77 1012.6
20260903055533 79 84 0.0 2.0 0.00 0.00 0.00 76 1012.7
20260903054536 79 85 0.0 3.0 0.00 0.00 0.00 75 1012.7
20260903052402 80 115 3.0 8.0 0.00 0.00 0.00 74 1013.1
20260903051412 81 104 4.0 10.0 0.00 0.00 0.00 74 1013.1
20260903050356 81 165 7.0 12.0 0.00 0.00 0.00 73 1013.2
20260903045324 81 126 8.0 16.0 0.00 0.00 0.00 72 1013.1
20260903044255 82 173 5.0 11.0 0.00 0.00 0.00 71 1013.1
20260903043237 82 85 6.0 11.0 0.00 0.00 0.00 69 1012.9
20260903042250 82 107 5.0 11.0 0.00 0.00 0.00 68 1012.9
20260903040034 83 113 6.0 13.0 0.00 0.00 0.00 66 1013.0
20260903033910 84 102 5.0 11.0 0.00 0.00 0.00 65 1012.9
20260903031801 85 111 4.0 13.0 0.00 0.00 0.00 63 1012.8
20260903030803 86 136 7.0 13.0 0.00 0.00 0.00 62 1012.6
20260903025820 86 105 7.0 16.0 0.00 0.00 0.00 61 1012.7
20260903024825 87 109 6.0 16.0 0.00 0.00 0.00 60 1012.6
20260903023815 87 115 6.0 16.0 0.00 0.00 0.00 59 1012.6
20260903022824 88 136 7.0 16.0 0.00 0.00 0.00 58 1012.3
20260903021752 88 137 6.0 12.0 0.00 0.00 0.00 57 1012.1
20260903020803 88 99 6.0 12.0 0.00 0.00 0.00 56 1011.8
20260903015805 88 107 5.0 12.0 0.00 0.00 0.00 56 1011.6
20260903014749 89 78 5.0 11.0 0.00 0.00 0.00 55 1011.5
20260903013753 89 69 5.0 11.0 0.00 0.00 0.00 54 1011.4
20260903012736 90 94 7.0 12.0 0.00 0.00 0.00 54 1011.3
20260903011734 90 108 7.0 12.0 0.00 0.00 0.00 53 1011.2
20260903010758 90 89 7.0 16.0 0.00 0.00 0.00 52 1011.3
20260903005807 91 107 7.0 16.0 0.00 0.00 0.00 52 1011.1
20260903004739 91 59 7.0 14.0 0.00 0.00 0.00 53 1011.0
20260903003712 92 90 7.0 14.0 0.00 0.00 0.00 52 1010.9
20260903002640 92 113 5.0 12.0 0.00 0.00 0.00 52 1010.9
20260903001656 93 94 7.0 17.0 0.00 0.00 0.00 51 1010.9
20260903000704 94 105 9.0 20.0 0.00 0.00 0.00 50 1010.9
20260902235639 94 92 11.0 20.0 0.00 0.00 0.00 49 1010.9
20260902234618 95 94 4.0 12.0 0.00 0.00 0.00 47 1010.7
20260902232529 96 95 9.0 16.0 0.00 0.00 0.00 45 1010.6
20260902230413 97 97 6.0 12.0 0.00 0.00 0.00 42 1010.6
20260902225409 98 82 5.0 12.0 0.00 0.00 0.00 43 1010.5
20260902224413 98 76 6.0 15.0 0.00 0.00 0.00 42 1010.6
20260902223413 98 63 6.0 15.0 0.00 0.00 0.00 42 1010.5
20260902222434 98 94 7.0 16.0 0.00 0.00 0.00 42 1010.6